This demonstration page uses our WeatherBlox Daily Observations layout. Learn more.

Left ArrowRight Arrow

39.01783, -85.05884

Hourly Observations for February 1, 2016

Temp ( °F °C ) Dew Point ( °F °C ) Humidity (%) Winds ( mph kmh ) Pressure ( in mb ) Visibility ( mi km ) Precip ( " mm )
12:25 am 00:25 Cloudy 55 13 46 8 72 72 NW 18 30 29.77 1008 10 16 N/A
12:52 am 00:52 Cloudy 53 11.7 45 7.2 74 74 WNW 14 22 29.79 1009 10 16 N/A
1:52 am 01:52 Cloudy 50 10 44 6.7 80 80 NW 17 28 29.80 1009 10 16 N/A
2:52 am 02:52 Cloudy 48 8.9 40 4.4 74 74 NW 13 20 29.85 1011 10 16 N/A
3:52 am 03:52 Cloudy 45 7.2 38 3.3 77 77 N 12 19 29.88 1012 10 16 N/A
4:52 am 04:52 Cloudy 43 6.1 35 1.7 74 74 N 8 13 29.89 1012 10 16 N/A
5:52 am 05:52 Cloudy 42 5.6 35 1.7 76 76 NNW 6 9 29.92 1013 9 14 N/A
6:52 am 06:52 Cloudy 41 5 35 1.7 79 79 N 8 13 29.94 1014 8 13 N/A
7:52 am 07:52 Mostly Cloudy 39 3.9 34 1.1 82 82 N 9 15 29.95 1014 8 13 N/A
8:52 am 08:52 Cloudy with Haze 41 5 35 1.7 79 79 N 8 13 29.98 1015 6 10 N/A
9:52 am 09:52 Cloudy with Haze 41 5 34 1.1 76 76 N 5 7 29.98 1015 6 10 N/A
10:52 am 10:52 Cloudy 44 6.7 35 1.7 71 71 N 7 11 30.00 1016 7 11 N/A
11:52 am 11:52 Cloudy 44 6.7 34 1.1 68 68 ENE 5 7 30.01 1016 7 11 N/A
12:52 pm 12:52 Mostly Cloudy 47 8.3 33 0.6 59 59 E 3 6 30.01 1016 9 14 N/A
1:52 pm 13:52 Mostly Cloudy 47 8.3 32 undefined 56 56 N N/A 30.00 1016 10 16 N/A
2:52 pm 14:52 Partly Cloudy 50 10 32 undefined 50 50 VRB 3 6 29.99 1016 10 16 N/A
3:52 pm 15:52 Mostly Sunny 51 10.6 31 -0.6 46 46 VRB 3 6 29.98 1015 10 16 N/A
4:52 pm 16:52 Sunny 50 10 31 -0.6 48 48 NNW 9 15 30.02 1017 10 16 N/A
5:52 pm 17:52 Sunny 46 7.8 31 -0.6 56 56 N 8 13 30.03 1017 10 16 N/A
6:52 pm 18:52 Cloudy 63 17 48 9 59 59 SSW 10 17 29.68 1005 10 16 N/A
7:52 pm 19:52 Clear 40 4.4 30 -1.1 68 68 NNE 5 7 30.06 1018 10 16 N/A
8:52 pm 20:52 Clear 41 5 31 -0.6 67 67 NE 8 13 30.09 1019 10 16 N/A
9:52 pm 21:52 Clear 41 5 31 -0.6 67 67 NE 8 13 30.09 1019 10 16 N/A
10:52 pm 22:52 Clear 39 3.9 30 -1.1 70 70 E 5 7 30.10 1019 10 16 N/A
11:52 pm 23:52 Clear 39 3.9 31 -0.6 73 73 ENE 8 13 30.07 1018 10 16 N/A

Powered by AerisWeather